User: anonymous   Login
Location: Unspecified
(0.0000°N, 0.0000°E)
Time: 07:37:59
(UTC+00:00)
Language:

METEOR-M - Orbit

View from above orbital plane
View from above orbital plane
View from above satellite
View from above satellite

Ground track
Ground track

The orbit data is extracted from the following two-line orbital elements,

1 35865U 09049A   15146.74809524  .00000110  00000-0  68596-4 0  9995
2 35865 098.5020 187.8579 0002540 151.6743 208.4571 14.22026776295163
Epoch (UTC): 26 May 2015 17:57:15
Eccentricity: 0.0002540
inclination: 98.5020°
perigee height: 816 km
apogee height: 820 km
right ascension of ascending node: 187.8579°
argument of perigee: 151.6743°
revolutions per day: 14.22026776
mean anomaly at epoch: 208.4571°
orbit number at epoch: 29516

The dashed part of the orbit path shows where the satellite is in the earth's shadow,  

DLR